Weather in Kononivka

Ukraine / Luhansk Region     49°20′02″N   39°37′36″E
temp.,
°C
wind,
m/s
gust,
m/s
humid.,
%
clouds,
%
prec.,
mm/h
press.,
hPa
HPBL,
m
24 january, mon
mon2423:00−4ne71395100 0.8 1020475
02:00−3ene71396100 1.9 1020613
05:00−4ene61291100 0.6 1021468
08:00−6ne61191100 0.6 1023444
11:00−7ene61092100 0.0 1024436
14:00−7ene5995100 0.2 1024433
17:00−8ne599494 0.2 1024261
20:00−9ene5119499 0.3 1024253
25 january, tue
tue2523:00−10nne3596100 0.0 102586
02:00−9ne2496100 0.1 1025110
05:00−8ne2496100 0.0 1024113
08:00−7ne2295100 0.5 1024112
11:00−5sw1292100 0.1 1024241
14:00−5sw1295100 0.1 102372
17:00−11s00100100 0.0 102310
20:00−6s0096100 0.1 102230
26 january, wed
wed2623:00−5ssw129799 0.1 102262
02:00−4wsw4787100 0.1 1021322
05:00−12ssw329794 0.0 102029
08:00−14ssw22100100 0.0 102120
11:00−6sw369482 0.0 1020246
14:00−5sw259571 0.1 1019245
17:00−6nnw1197100 0.1 102026
20:00−6ese119898 0.3 102014
27 january, thu
thu2723:00−10s0099100 0.1 102010
02:00−9nnw1197100 0.4 102012
05:00−9ne1197100 0.3 101910
08:00−9nne119699 0.5 101925
11:00−5w1293100 0.3 1018180
14:00−5wnw129383 0.5 1018225
17:00−8wnw2297100 0.1 101833
20:00−12w119967 0.2 101810
28 january, fri
fri2823:00−15sw11100100 0.0 10189
02:00−16sw11100100 0.1 10189
05:00−17s2210073 0.0 10189
08:00−12sse379784 0.0 1017130
11:00−6s51095100 0.3 1015342
14:00−1s61397100 0.8 1012617
17:000ssw61398100 1.0 1010790
20:000sw61398100 1.9 1010797